Zurück zum Katalog

STARLINK-36326

AktivKommunikationVLEO
NORAD 68519·PAYLOAD·🇺🇸 United States

Gestartet Mar 30, 2026 von Cape Canaveral Space Force Station

Loading…

Nächste Überflüge (nächste 24 Stunden)

TLE

AktuellSource: CelesTrak SupGP

Epoche: Sep 15, 2026, 04:00 UTC

1 68519C 26068M   26258.16715278  .00042707  00000+0  12618-2 0  2588
2 68519  53.1593 324.5759 0001364  90.8659 118.1448 15.34369702    11

Verfolge STARLINK-36326 in Echtzeit mit AllMySat

Download on the App Store